Weather History for MWCR - December, 2011

Change the Weather History Date:

Thursday, December 29, 2011

  Actual Average Record
Temperature  
Mean Temperature 78 °F -  
Max Temperature 85 °F 80 °F 86 °F (1998)
Min Temperature 72 °F 73 °F 62 °F (1999)
Cooling Degree Days 14    
Growing Degree Days 28 (Base 50)    
Moisture  
Dew Point 73 °F    
Average Humidity 80    
Maximum Humidity 100    
Minimum Humidity 63    
Precipitation  
Precipitation 0.00 in - - ()
Sea Level Pressure  
Sea Level Pressure 30.03 in    
Wind  
Wind Speed 5 mph ()    
Max Wind Speed 10 mph    
Max Gust Speed -    
Visibility 6.2 miles    
Events Tornado    
Averages and records for this station are not official NWS values.
T = Trace of Precipitation, MM = Missing Value Source: Averaged Metar Reports

Daily Weather History Graph

Daily Weather History Graph

Search for Another Location

Airport or City:

Trip Planner

Search our weather history database for the weather conditions in past years. The results will help you decide how hot, cold, wet, or windy it might be!

Date:

Astronomy

Dec. 29, 2011 Rise Set
Actual Time 6:58 AM EST 5:56 PM EST
Civil Twilight 6:34 AM EST 6:20 PM EST
Nautical Twilight 6:06 AM EST 6:48 PM EST
Astronomical Twilight 5:39 AM EST 7:15 PM EST
Moon 10:32 AM EST (12/29) 10:46 PM EST (12/29)
Length of Visible Light 11h 46m
Length of Day
10h 58m
Waxing Crescent, 26% of the Moon is Illuminated
Dec 29
Waxing Crescent
Jan 1
First Quarter
Jan 9
Full
Jan 16
Last Quarter
Jan 23
New

Hourly Weather History & Observations

Time (EST) Temp. Heat Index Dew Point Humidity Pressure Visibility Wind Dir Wind Speed Gust Speed Precip Events Conditions
6:00 AM 75.2 °F - 73.4 °F 94% 30.01 in - East 3.5 mph - N/A   Clear
6:53 AM 75.2 °F - 73.4 °F 94% 30.01 in 6.2 mi East 2.3 mph - N/A   Partly Cloudy
7:00 AM 74 °F - 72 °F 94% 30.03 in 6 mi East 2.3 mph - -   Scattered Clouds
7:53 AM 75.2 °F - 75.2 °F 100% 30.04 in 6.2 mi East 3.5 mph - N/A   Partly Cloudy
8:58 AM 80.6 °F 85.4 °F 73.4 °F 79% 30.06 in 6.2 mi East 4.6 mph - N/A   Partly Cloudy
9:52 AM 80.6 °F 85.4 °F 73.4 °F 79% 30.06 in 6.2 mi East 5.8 mph - N/A   Scattered Clouds
10:54 AM 84.2 °F 90.9 °F 73.4 °F 70% 30.06 in 6.2 mi SE 5.8 mph - N/A   Partly Cloudy
11:56 AM 84.2 °F 90.9 °F 73.4 °F 70% 30.04 in 6.2 mi SSE 8.1 mph - N/A   Partly Cloudy
12:56 PM 84.2 °F 90.9 °F 73.4 °F 70% 30.01 in 6.2 mi SSE 8.1 mph - N/A   Partly Cloudy
1:00 PM 84 °F - 73 °F 63% 30.03 in 6 mi SSE 8.1 mph - -   Scattered Clouds
1:52 PM 82.4 °F 87.2 °F 71.6 °F 70% 30.01 in 6.2 mi SSE 6.9 mph - N/A   Scattered Clouds
3:00 PM 84.2 °F 90.9 °F 73.4 °F 70% 29.98 in 6.2 mi SSE 9.2 mph - N/A   Scattered Clouds
4:00 PM 84.2 °F 92.3 °F 75.2 °F 74% 29.98 in 6.2 mi ESE 9.2 mph - N/A   Scattered Clouds
5:00 PM 80.6 °F 84.6 °F 71.6 °F 74% 30.01 in 6.2 mi East 10.4 mph - N/A Tornado Funnel Cloud
6:00 PM 80.6 °F 85.4 °F 73.4 °F 79% 30.01 in 6.2 mi East 6.9 mph - N/A   Partly Cloudy
7:00 PM 79 °F - 72 °F 75% 30.04 in 6 mi East 4.6 mph - -   Scattered Clouds
7:00 PM 78.8 °F - 73.4 °F 83% 30.04 in 6.2 mi East 4.6 mph - N/A   Partly Cloudy
8:00 PM 78.8 °F - 73.4 °F 83% 30.04 in 6.2 mi ESE 5.8 mph - N/A   Partly Cloudy
9:00 PM 78.8 °F - 73.4 °F 83% 30.06 in 6.2 mi East 4.6 mph - N/A   Partly Cloudy
10:00 PM 77.0 °F - 73.4 °F 89% 30.06 in 6.2 mi ESE 5.8 mph - N/A   Partly Cloudy